TimeEST,TemperatureF,Dew PointF,Humidity,Sea Level PressureIn,VisibilityMPH,Wind Direction,Wind SpeedMPH,Gust SpeedMPH,PrecipitationIn,Events,Conditions,WindDirDegrees,DateUTC
12:56 AM,37.0,32.0,82,29.73,10.0,West,11.5,-,N/A,,Clear,260,2014-02-14 05:56:00
2:56 AM,36.0,30.9,82,29.76,10.0,WSW,10.4,-,N/A,,Clear,240,2014-02-14 07:56:00
3:56 AM,35.1,30.9,85,29.78,10.0,WSW,9.2,-,N/A,,Clear,240,2014-02-14 08:56:00
4:56 AM,35.1,30.0,82,29.82,10.0,WSW,11.5,-,N/A,,Clear,250,2014-02-14 09:56:00
5:56 AM,34.0,30.9,89,29.85,10.0,WSW,6.9,-,N/A,,Clear,240,2014-02-14 10:56:00
6:56 AM,33.1,30.0,89,29.85,8.0,SW,5.8,-,N/A,,Clear,220,2014-02-14 11:56:00
7:56 AM,36.0,30.9,82,29.86,10.0,WSW,10.4,-,N/A,,Clear,240,2014-02-14 12:56:00
8:56 AM,41.0,30.9,67,29.86,10.0,West,11.5,-,N/A,,Clear,260,2014-02-14 13:56:00
9:56 AM,45.0,32.0,60,29.86,10.0,WSW,6.9,-,N/A,,Clear,250,2014-02-14 14:56:00
10:56 AM,51.1,32.0,48,29.86,10.0,WSW,8.1,-,N/A,,Clear,240,2014-02-14 15:56:00
11:56 AM,54.0,32.0,43,29.84,10.0,SW,6.9,-,N/A,,Clear,220,2014-02-14 16:56:00
12:56 PM,57.0,32.0,39,29.81,10.0,SSW,9.2,16.1,N/A,,Clear,210,2014-02-14 17:56:00
1:56 PM,59.0,30.9,35,29.81,10.0,SW,11.5,-,N/A,,Clear,220,2014-02-14 18:56:00
2:56 PM,59.0,30.0,33,29.82,10.0,WSW,15.0,-,N/A,,Clear,240,2014-02-14 19:56:00
3:56 PM,59.0,30.9,35,29.83,10.0,SW,9.2,19.6,N/A,,Clear,230,2014-02-14 20:56:00
4:56 PM,52.0,39.9,63,29.81,10.0,SSE,9.2,-,N/A,,Clear,150,2014-02-14 21:56:00
5:56 PM,48.9,39.0,69,29.82,10.0,SSW,6.9,-,N/A,,Clear,200,2014-02-14 22:56:00
6:56 PM,46.9,37.0,68,29.83,10.0,SSW,4.6,-,N/A,,Clear,200,2014-02-14 23:56:00
7:56 PM,46.9,37.0,68,29.85,10.0,SSW,5.8,-,N/A,,Clear,210,2014-02-15 00:56:00
8:56 PM,46.9,37.0,68,29.84,10.0,SW,6.9,-,N/A,,Clear,220,2014-02-15 01:56:00
9:56 PM,46.9,37.0,68,29.82,10.0,SSW,5.8,-,N/A,,Clear,210,2014-02-15 02:56:00
10:56 PM,46.9,37.0,68,29.80,10.0,SSW,4.6,-,N/A,,Clear,200,2014-02-15 03:56:00
11:56 PM,46.9,37.9,71,29.82,10.0,SW,6.9,-,N/A,,Clear,230,2014-02-15 04:56:00